When you browse on this site, cookies collect data to enhance your experience and personalize the content and advertising you see.
Visit our Privacy Policy to learn more. By continuing to use the site, you agree to this use of cookies and data.
  • In Sweden
  • List of Countries
  • For 7 days
  • Water Temperature
  • Weather Map
  • Weather Widgets
  • user-avatar
    Login

    Hourly Weather Birmingham

    Today, 21 February, Friday

    Time Temperature Precipitation Wind Pressure Humidity
    00:00 +1°C° 0 mm 5 mps 751 mmHg 84%
    01:00 +1°C° 0 mm 5 mps 751 mmHg 83%
    02:00 +1°C° 0 mm 6 mps 751 mmHg 83%
    03:00 +1°C° 0 mm 6 mps 751 mmHg 83%
    04:00 +1°C° 0 mm 6 mps 751 mmHg 84%
    05:00 +2°C° 0 mm 6 mps 751 mmHg 85%
    06:00 +2°C° 0 mm 5 mps 751 mmHg 87%
    13:00 +6°C° 0 mm 10 mps 750 mmHg 75%
    14:00 +6°C° 0 mm 10 mps 749 mmHg 75%
    15:00 +7°C° 0 mm 10 mps 749 mmHg 75%
    16:00 +6°C° 0 mm 9 mps 749 mmHg 76%
    17:00 +6°C° 0 mm 9 mps 748 mmHg 76%
    18:00 +6°C° 0 mm 9 mps 748 mmHg 77%
    19:00 +6°C° 0 mm 9 mps 748 mmHg 77%
    20:00 +6°C° 0 mm 10 mps 747 mmHg 77%
    21:00 +6°C° 0 mm 10 mps 747 mmHg 78%
    22:00 +7°C° 0.1 mm 11 mps 746 mmHg 79%
    23:00 +7°C° 0.1 mm 11 mps 746 mmHg 80%

    Tomorrow, 22 February, Saturday

    Time Temperature Precipitation Wind Pressure Humidity
    00:00 +8°C° 0.1 mm 11 mps 746 mmHg 81%
    01:00 +8°C° 0.5 mm 11 mps 745 mmHg 83%
    02:00 +8°C° 0.5 mm 12 mps 744 mmHg 84%
    03:00 +8°C° 0.5 mm 12 mps 743 mmHg 86%
    04:00 +8°C° 0.1 mm 12 mps 744 mmHg 83%
    05:00 +8°C° 0.1 mm 11 mps 744 mmHg 79%
    06:00 +8°C° 0.1 mm 11 mps 745 mmHg 76%
    07:00 +7°C° 0 mm 10 mps 745 mmHg 76%
    08:00 +6°C° 0 mm 9 mps 746 mmHg 77%
    09:00 +5°C° 0 mm 8 mps 746 mmHg 78%
    10:00 +5°C° 0.1 mm 8 mps 747 mmHg 75%
    11:00 +5°C° 0.1 mm 9 mps 748 mmHg 72%
    12:00 +5°C° 0.1 mm 9 mps 749 mmHg 69%
    13:00 +5°C° 0.1 mm 9 mps 749 mmHg 68%
    14:00 +5°C° 0.1 mm 9 mps 749 mmHg 66%
    15:00 +5°C° 0.1 mm 9 mps 750 mmHg 65%
    16:00 +5°C° 0 mm 8 mps 750 mmHg 68%
    17:00 +4°C° 0 mm 7 mps 750 mmHg 70%
    18:00 +3°C° 0 mm 6 mps 751 mmHg 73%
    19:00 +3°C° 0 mm 6 mps 751 mmHg 74%
    20:00 +3°C° 0 mm 6 mps 751 mmHg 74%
    21:00 +3°C° 0 mm 6 mps 752 mmHg 75%
    22:00 +3°C° 0 mm 6 mps 752 mmHg 77%
    23:00 +3°C° 0 mm 6 mps 752 mmHg 78%

    Day after tomorrow, 23 February, Sunday

    Time Temperature Precipitation Wind Pressure Humidity
    00:00 +3°C° 0 mm 6 mps 752 mmHg 80%
    01:00 +5°C° 0.5 mm 5 mps 750 mmHg 85%
    02:00 +5°C° 0.5 mm 5 mps 749 mmHg 89%
    03:00 +5°C° 0.5 mm 4 mps 748 mmHg 93%
    04:00 +5°C° 1.4 mm 7 mps 747 mmHg 92%
    05:00 +7°C° 1.4 mm 9 mps 745 mmHg 91%
    06:00 +9°C° 1.4 mm 11 mps 744 mmHg 90%
    07:00 +9°C° 0.5 mm 11 mps 744 mmHg 89%
    08:00 +9°C° 0.5 mm 11 mps 743 mmHg 87%
    09:00 +11°C° 0.5 mm 11 mps 743 mmHg 86%
    10:00 +9°C° 0.3 mm 10 mps 744 mmHg 85%
    11:00 +10°C° 0.3 mm 9 mps 745 mmHg 84%
    12:00 +10°C° 0.3 mm 8 mps 746 mmHg 84%
    13:00 +9°C° 0 mm 8 mps 747 mmHg 81%
    14:00 +7°C° 0 mm 8 mps 748 mmHg 79%
    15:00 +6°C° 0 mm 8 mps 748 mmHg 76%
    16:00 +5°C° 0 mm 6 mps 749 mmHg 77%
    17:00 +4°C° 0 mm 4 mps 751 mmHg 79%
    18:00 +3°C° 0 mm 3 mps 752 mmHg 80%
    19:00 +4°C° 0 mm 2 mps 752 mmHg 80%
    20:00 +4°C° 0 mm 2 mps 753 mmHg 81%
    21:00 +4°C° 0 mm 1 mps 753 mmHg 81%
    22:00 +5°C° 0 mm 1 mps 753 mmHg 80%
    23:00 +4°C° 0 mm 2 mps 753 mmHg 79%

    24 February, Monday

    Time Temperature Precipitation Wind Pressure Humidity
    00:00 +4°C° 0 mm 2 mps 753 mmHg 78%
    01:00 +3°C° 0.1 mm 3 mps 752 mmHg 80%
    02:00 +3°C° 0.1 mm 3 mps 751 mmHg 82%
    03:00 +3°C° 0.1 mm 4 mps 750 mmHg 83%
    04:00 +3°C° 0.1 mm 5 mps 749 mmHg 87%
    05:00 +5°C° 0.1 mm 5 mps 748 mmHg 90%
    06:00 +5°C° 0.1 mm 6 mps 747 mmHg 93%
    07:00 +6°C° 0 mm 7 mps 746 mmHg 91%
    08:00 +6°C° 0 mm 8 mps 745 mmHg 89%
    09:00 +7°C° 0 mm 8 mps 744 mmHg 87%
    10:00 +7°C° 0.3 mm 9 mps 743 mmHg 87%
    11:00 +7°C° 0.3 mm 9 mps 743 mmHg 87%
    12:00 +8°C° 0.3 mm 9 mps 742 mmHg 87%
    13:00 +7°C° 0.2 mm 9 mps 742 mmHg 82%
    14:00 +7°C° 0.2 mm 10 mps 741 mmHg 78%
    15:00 +7°C° 0.2 mm 10 mps 741 mmHg 73%
    16:00 +6°C° 0 mm 9 mps 741 mmHg 74%
    17:00 +5°C° 0 mm 8 mps 741 mmHg 75%
    18:00 +3°C° 0 mm 7 mps 741 mmHg 76%
    19:00 +3°C° 0 mm 7 mps 742 mmHg 76%
    20:00 +2°C° 0 mm 6 mps 742 mmHg 76%
    21:00 +2°C° 0 mm 6 mps 742 mmHg 76%
    22:00 +2°C° 0 mm 6 mps 742 mmHg 76%
    23:00 +1°C° 0 mm 6 mps 742 mmHg 76%

    25 February, Tuesday

    Time Temperature Precipitation Wind Pressure Humidity
    00:00 +1°C° 0 mm 6 mps 742 mmHg 76%
    01:00 +1°C° 0 mm 6 mps 742 mmHg 76%
    02:00 0°C° 0 mm 7 mps 742 mmHg 76%
    03:00 0°C° 0 mm 7 mps 741 mmHg 76%
    04:00 -1°C° 0 mm 6 mps 741 mmHg 76%
    05:00 -1°C° 0 mm 6 mps 741 mmHg 77%
    06:00 -1°C° 0 mm 6 mps 741 mmHg 77%
    07:00 +1°C° 0 mm 6 mps 741 mmHg 75%
    08:00 +1°C° 0 mm 6 mps 741 mmHg 74%
    09:00 +2°C° 0 mm 6 mps 741 mmHg 72%
    10:00 +2°C° 0.1 mm 7 mps 740 mmHg 75%
    11:00 +3°C° 0.1 mm 7 mps 740 mmHg 78%
    12:00 +3°C° 0.1 mm 7 mps 739 mmHg 80%
    13:00 +3°C° 0.1 mm 7 mps 738 mmHg 80%
    14:00 +3°C° 0.1 mm 6 mps 737 mmHg 80%
    15:00 +3°C° 0.1 mm 6 mps 737 mmHg 80%
    16:00 +2°C° 0.4 mm 7 mps 736 mmHg 82%
    17:00 +1°C° 0.4 mm 8 mps 735 mmHg 84%
    18:00 0°C° 0.4 mm 8 mps 735 mmHg 86%
    19:00 0°C° 0.5 mm 8 mps 735 mmHg 81%
    20:00 -1°C° 0.5 mm 8 mps 735 mmHg 75%
    21:00 -1°C° 0.5 mm 8 mps 736 mmHg 70%
    22:00 -2°C° 0.1 mm 8 mps 736 mmHg 73%
    23:00 -2°C° 0.1 mm 8 mps 736 mmHg 76%

    26 February, Wednesday

    Time Temperature Precipitation Wind Pressure Humidity
    00:00 -4°C° 0.1 mm 8 mps 736 mmHg 79%
    01:00 -4°C° 0 mm 8 mps 736 mmHg 79%
    02:00 -4°C° 0 mm 8 mps 737 mmHg 79%
    03:00 -4°C° 0 mm 8 mps 737 mmHg 79%
    04:00 -3°C° 0 mm 7 mps 737 mmHg 79%
    05:00 -3°C° 0 mm 7 mps 737 mmHg 80%
    06:00 -3°C° 0 mm 6 mps 737 mmHg 80%
    07:00 -2°C° 0.1 mm 7 mps 738 mmHg 77%
    08:00 -1°C° 0.1 mm 8 mps 739 mmHg 73%
    09:00 -1°C° 0.1 mm 8 mps 739 mmHg 70%
    10:00 0°C° 0 mm 9 mps 740 mmHg 66%
    11:00 +1°C° 0 mm 10 mps 741 mmHg 62%
    12:00 +2°C° 0 mm 11 mps 741 mmHg 58%
    13:00 +2°C° 0.1 mm 10 mps 742 mmHg 58%
    14:00 +2°C° 0.1 mm 10 mps 742 mmHg 59%
    15:00 +2°C° 0.1 mm 9 mps 743 mmHg 59%
    16:00 +1°C° 0 mm 8 mps 743 mmHg 64%
    17:00 0°C° 0 mm 7 mps 744 mmHg 70%
    18:00 0°C° 0 mm 5 mps 744 mmHg 76%
    19:00 0°C° 0 mm 5 mps 745 mmHg 77%
    20:00 -1°C° 0 mm 5 mps 745 mmHg 78%
    21:00 -1°C° 0 mm 5 mps 746 mmHg 80%
    22:00 -1°C° 0 mm 4 mps 746 mmHg 81%
    23:00 -2°C° 0 mm 4 mps 746 mmHg 81%
    Show more